KINEIS-5A

Last updated on Fri Dec 12 2025 00:02:43 GMT+0000 (Coordinated Universal Time)

1 62084U 24219D 25345.02721513 .00001353 00000+0 22144-3 0 9995 2 62084 97.9859 143.3152 0002451 154.0400 206.0931 14.72377086 56089
UTC large
Height (km)
Speed (km/s)
/
Latitude / Longitude
Inclination (degrees)
Orbital Period (minutes)
Azimuth
Elevation
Range (km)
Doppler Factor

Next 0 passes for location: London (51.5072 / 0.1276)

Sorry there are no passes over London.